Wind_Speed
5 4 5 6 6 6 4 6 6 6 7 5 8 9 8 10 10 10 9 11 11 12 13 13 11 11 10 10 10 11 11 11 12 12 10 10 10 9 10 11 11 11 11
5 9 8 7 5 7 5 7 6 7 8 9 12 10 11 10 10 10 12 16 14 12 13 14 14 12 12 11 12 12 14 14 13 14 14 12 12 10 11 11 12 13 13
2 4 3 2 3 6 7 9 9 10 9 7 11 10 10 11 11 16 16 14 15 13 13 10 14 13 12 12 13 14 15 16 16 15 15 15 14 13 13 13 13 14 15
3 2 3 1 4 2 7 4 3 9 8 7 8 11 12 10 9 11 13 11 11 16 16 14 12 15 13 11 11 12 14 15 18 18 17 16 17 16 16 16 16 15 16
1 4 0 2 2 2 6 3 5 4 2 6 5 8 8 10 9 10 9 11 11 10 10 14 11 10 13 12 12 12 13 14 16 18 20 20 18 18 19 19 20 19 18
4 2 2 5 2 6 4 5 9 6 9 6 7 9 10 13 9 11 12 11 13 13 12 13 10 12 10 10 13 14 15 13 14 15 16 17 19 20 21 22 22 22 23
5 7 3 7 5 9 8 7 6 8 7 7 11 12 13 15 11 10 9 11 12 6 10 12 8 12 16 16 14 16 15 14 15 15 13 13 15 17 19 21 23 23 24
6 7 6 8 7 7 8 8 4 7 7 7 6 10 9 10 6 9 8 5 6 3 7 8 10 9 11 14 17 13 18 17 17 16 18 17 18 16 17 22 24 25 26
3 9 7 6 8 7 9 8 7 6 3 5 6 6 7 5 10 7 9 5 3 3 7 10 11 12 12 12 16 15 19 18 17 19 18 21 23 21 31 27 23 29 30
4 3 3 4 5 5 7 4 5 4 3 5 4 7 8 10 4 15 10 10 7 11 14 9 11 13 12 11 14 17 17 18 19 18 18 25 24 24 16 23 28 20 26
3 4 7 8 7 5 5 4 2 2 2 4 5 8 10 9 9 15 22 16 11 15 18 9 3 12 14 8 12 13 14 16 20 20 17 22 20 18 19 20 21 25 26
2 6 5 5 5 5 4 4 7 6 8 9 8 8 9 8 6 9 15 19 19 17 13 12 10 13 11 5 12 14 18 17 17 19 17 18 17 17 21 26 26 24 24
3 9 5 5 4 7 8 10 11 11 10 10 9 6 7 9 9 8 13 15 16 13 12 10 9 11 13 13 12 11 14 15 14 16 18 18 19 19 19 22 23 23 25
2 7 7 9 10 10 11 12 9 7 7 7 8 7 7 9 9 11 11 12 14 13 12 9 6 8 2 10 13 14 14 12 11 14 16 16 16 17 21 24 23 24 25
5 4 5 7 8 7 8 8 5 10 10 6 7 7 6 6 8 9 9 9 10 13 11 8 7 7 10 7 11 11 11 13 11 13 13 15 14 15 16 18 21 24 23
4 4 3 3 3 5 5 3 4 10 9 4 4 11 9 4 7 7 9 9 10 11 14 11 10 12 13 11 11 12 11 15 11 12 12 13 17 19 19 19 19 19 20
1 1 1 1 3 5 7 7 8 8 10 9 8 8 9 8 5 6 7 8 8 9 13 12 11 9 11 11 10 12 12 12 10 16 11 11 15 17 17 18 17 15 14
0 0 1 1 2 4 6 8 8 8 8 7 7 8 8 5 7 7 6 8 9 10 10 13 10 10 12 11 7 10 10 9 9 11 13 17 17 14 15 15 17 16 16
1 1 1 1 2 4 5 4 5 6 6 6 7 9 8 8 5 7 6 6 7 7 9 11 11 9 9 9 7 10 10 7 5 9 11 12 13 17 13 12 14 16 19
0 1 0 2 3 5 5 4 4 3 3 3 7 7 8 9 8 7 5 6 9 8 8 9 8 10 8 6 5 6 7 6 8 8 8 12 12 12 8 6 8 13 15
2 2 3 3 3 4 5 2 4 6 5 4 3 7 8 14 13 13 10 10 9 8 9 9 9 9 9 7 9 7 8 8 9 5 6 5 9 6 8 10 10 11 12
4 2 2 4 4 2 13 15 8 3 8 7 7 7 7 13 12 14 12 11 10 9 6 7 7 7 9 5 8 5 4 7 8 9 6 7 8 8 8 9 11 16 12
4 4 4 5 6 7 15 11 9 6 7 8 8 8 6 6 12 12 10 10 8 8 8 7 6 7 7 5 6 8 6 7 8 7 7 5 4 7 6 8 9 9 6
5 5 5 7 8 11 13 14 11 7 5 10 10 9 7 7 14 13 10 8 9 8 8 6 8 9 8 10 9 7 8 9 11 5 7 5 6 6 9 9 6 4 5
5 5 5 7 7 10 13 13 11 7 8 11 11 10 7 6 14 14 7 7 9 8 11 10 11 12 12 11 10 5 8 7 7 4 3 4 4 6 10 6 5 5 7
6 6 7 7 8 10 15 14 12 9 9 11 12 11 13 12 11 10 8 5 10 9 10 10 10 8 8 6 10 5 4 6 7 5 8 4 6 7 7 6 6 9 9
Wind_Direction
216 198 231 222 227 186 228 230 236 257 257 251 254 247 251 245 243 245 259 262 275 273 260 252 254 248 245 241 230 223 222 217 204 202 206 200 197 194 193 193 192 193 196
196 225 219 220 197 223 220 237 239 255 266 258 247 260 259 258 255 250 237 267 273 280 278 257 243 247 249 248 241 236 232 223 221 213 212 220 214 215 209 212 214 207 208
266 236 203 215 275 227 240 244 253 247 255 264 268 267 263 252 252 249 234 237 266 272 278 286 250 250 251 242 244 240 234 229 227 224 223 221 224 225 225 222 219 224 221
138 81 162 336 229 257 292 280 268 269 283 257 274 278 263 286 268 261 261 263 254 260 263 269 278 254 256 249 240 238 238 236 231 228 231 232 231 230 229 230 231 229 231
236 133 255 272 266 250 286 271 294 324 315 274 278 257 281 272 270 251 239 243 237 236 263 260 271 270 251 251 244 238 238 240 237 234 232 235 239 241 240 237 236 237 233
242 202 237 248 252 251 268 266 290 307 313 296 306 289 279 276 272 249 241 233 235 250 237 258 241 275 264 259 256 248 240 240 238 239 240 240 241 244 247 246 244 243 243
250 255 232 276 273 269 273 259 271 297 288 282 290 284 277 250 247 234 227 240 243 234 244 260 238 261 272 263 260 259 248 246 240 238 239 243 251 249 247 249 249 249 247
247 274 244 224 255 264 258 283 278 250 292 281 288 307 303 329 288 227 233 226 226 235 260 232 237 250 264 274 271 243 248 247 246 242 237 235 247 249 255 249 249 251 251
292 293 274 271 271 269 290 278 272 283 261 302 301 311 315 47 340 288 215 190 348 234 234 241 255 248 246 251 269 267 258 241 244 243 247 245 237 245 251 260 254 255 245
274 301 303 266 283 256 250 268 288 265 305 322 302 303 328 329 334 306 336 9 300 257 249 234 265 269 293 254 251 251 260 247 247 246 246 257 257 252 234 240 248 254 258
221 223 279 284 277 275 256 233 244 175 284 300 301 315 318 330 333 304 312 322 281 282 315 263 205 277 274 243 263 267 262 259 246 244 246 265 263 248 236 222 244 249 246
297 309 291 313 300 248 247 232 239 278 294 276 272 275 288 272 263 273 286 301 303 314 296 339 299 277 257 282 249 258 263 265 257 246 253 265 260 249 241 238 245 247 253
281 302 324 315 304 272 263 269 279 287 295 290 291 277 288 297 306 291 284 291 291 301 293 289 286 282 275 262 267 252 275 270 265 253 260 263 260 256 250 244 251 249 248
239 283 286 292 290 284 266 275 283 286 280 280 282 277 266 270 269 274 275 283 288 288 291 270 306 277 307 266 289 297 285 274 272 270 265 261 258 258 257 251 255 255 255
305 296 298 296 299 293 282 283 309 294 286 298 284 292 289 272 268 273 272 274 269 287 283 292 305 307 307 287 302 305 302 285 287 275 271 266 265 264 262 258 255 259 260
246 286 324 333 328 318 306 288 300 295 296 300 306 270 278 279 261 272 272 268 268 273 281 281 281 290 289 292 287 295 292 292 301 305 297 285 272 268 266 264 266 262 255
332 336 349 346 354 349 337 327 313 325 313 310 305 307 297 291 273 277 277 278 280 280 278 277 281 286 291 291 290 283 288 287 290 287 262 293 296 275 268 261 264 261 251
314 314 330 357 353 339 329 329 337 323 332 341 331 329 321 301 286 328 310 295 284 281 273 283 285 290 291 297 289 290 298 284 279 295 303 307 299 286 270 266 260 254 245
207 122 20 300 304 308 320 348 346 335 331 331 302 308 307 295 296 275 259 269 296 291 294 289 292 290 291 291 289 303 294 291 312 280 300 277 307 308 289 271 267 261 256
60 74 220 272 282 301 315 336 336 336 333 317 319 306 300 312 295 289 307 299 280 276 290 281 285 295 298 303 282 304 330 308 302 293 278 273 294 329 326 300 281 274 267
286 272 256 251 275 317 293 262 310 315 320 311 279 283 281 281 294 290 289 275 278 299 290 293 299 296 322 336 338 337 310 314 321 262 279 293 306 301 251 237 282 292 287
297 308 283 281 287 276 261 277 279 289 311 323 318 308 293 314 314 315 297 292 299 300 293 288 293 293 303 320 299 304 311 328 318 325 286 295 251 296 287 279 290 296 288
255 274 258 262 269 271 273 276 284 277 289 294 314 311 314 296 289 291 289 291 297 302 306 290 282 277 280 296 295 305 307 305 301 301 311 299 313 302 304 297 278 277 294
254 257 262 267 262 256 272 283 291 300 280 287 300 300 293 295 285 306 291 297 278 280 286 306 280 273 271 291 293 299 336 312 301 280 282 294 316 315 301 301 292 300 305
257 264 269 271 258 270 276 283 284 285 279 278 293 290 267 276 278 294 292 302 287 263 276 276 289 277 283 285 291 285 294 298 314 325 271 304 319 322 311 289 284 326 338
254 246 264 260 263 249 270 280 276 272 280 280 286 290 291 299 301 295 284 285 296 273 254 297 295 306 320 316 327 307 299 289 293 312 278 287 311 323 312 281 306 330 326
Height
1559 1561 1562 1562 1562 1562 1564 1564 1565 1565 1564 1565 1566 1565 1566 1567 1567 1568 1569 1566 1567 1569 1569 1570 1571 1571 1571 1571 1572 1573 1574 1575 1577 1580 1581 1584 1586 1588 1590 1591 1592 1594 1595
1558 1560 1560 1560 1561 1562 1562 1563 1563 1564 1563 1563 1562 1563 1564 1564 1565 1565 1567 1565 1566 1566 1567 1567 1568 1569 1569 1569 1569 1571 1572 1574 1575 1578 1581 1583 1585 1587 1589 1591 1592 1593 1595
1557 1558 1558 1559 1559 1561 1561 1560 1560 1560 1560 1562 1562 1561 1562 1562 1562 1562 1562 1563 1562 1563 1564 1564 1565 1566 1566 1566 1566 1568 1569 1571 1574 1576 1578 1581 1584 1585 1587 1590 1592 1593 1593
1556 1558 1559 1559 1560 1560 1560 1559 1560 1559 1558 1559 1559 1558 1558 1557 1557 1557 1558 1558 1559 1558 1560 1561 1562 1563 1563 1563 1564 1565 1566 1568 1571 1575 1576 1578 1579 1582 1585 1587 1589 1590 1592
1557 1556 1559 1559 1558 1560 1559 1559 1558 1558 1557 1557 1557 1556 1555 1554 1553 1552 1554 1556 1557 1558 1556 1556 1558 1559 1560 1561 1561 1562 1564 1566 1568 1571 1573 1575 1577 1579 1581 1583 1585 1587 1588
1556 1555 1558 1558 1558 1558 1559 1559 1555 1557 1555 1557 1556 1554 1552 1549 1548 1548 1549 1550 1552 1553 1554 1554 1554 1556 1556 1557 1558 1559 1560 1563 1565 1568 1570 1572 1573 1576 1578 1579 1582 1583 1584
1556 1555 1556 1557 1557 1557 1557 1556 1557 1556 1556 1555 1554 1551 1548 1546 1548 1550 1547 1545 1545 1546 1549 1552 1553 1554 1552 1553 1554 1555 1557 1559 1562 1564 1567 1569 1569 1571 1573 1575 1576 1578 1579
1553 1553 1554 1553 1554 1555 1553 1553 1553 1554 1554 1554 1553 1549 1545 1546 1547 1539 1545 1541 1541 1543 1544 1549 1551 1552 1551 1549 1548 1547 1553 1555 1558 1560 1561 1563 1565 1566 1567 1568 1570 1572 1573
1553 1554 1550 1550 1551 1551 1552 1551 1551 1551 1550 1551 1551 1550 1546 1550 1548 1536 1533 1533 1534 1541 1543 1545 1546 1547 1548 1549 1546 1546 1550 1551 1553 1555 1557 1556 1557 1559 1557 1561 1563 1564 1565
1551 1552 1551 1551 1550 1550 1549 1549 1550 1549 1550 1551 1550 1548 1545 1545 1549 1542 1526 1529 1533 1536 1539 1537 1541 1542 1543 1545 1545 1545 1546 1547 1549 1550 1552 1550 1551 1553 1553 1555 1557 1555 1557
1551 1551 1549 1548 1548 1548 1548 1548 1549 1549 1550 1550 1551 1548 1545 1541 1544 1544 1539 1536 1535 1534 1517 1536 1534 1540 1538 1540 1543 1541 1543 1542 1545 1546 1547 1545 1547 1548 1550 1550 1549 1552 1554
1549 1548 1548 1547 1546 1547 1546 1546 1545 1546 1547 1547 1547 1546 1546 1545 1543 1546 1547 1542 1538 1534 1531 1529 1534 1536 1538 1537 1538 1538 1539 1539 1540 1541 1543 1542 1542 1544 1545 1546 1546 1544 1545
1548 1546 1546 1546 1546 1546 1546 1545 1544 1544 1544 1543 1543 1544 1545 1544 1543 1544 1544 1543 1540 1537 1535 1534 1536 1536 1536 1536 1535 1535 1534 1535 1536 1537 1538 1538 1537 1539 1539 1541 1543 1542 1542
1547 1544 1544 1544 1543 1543 1542 1542 1542 1543 1543 1542 1540 1539 1541 1542 1543 1543 1543 1541 1539 1538 1535 1535 1535 1536 1533 1534 1533 1533 1533 1532 1532 1532 1532 1534 1534 1534 1534 1536 1536 1536 1536
1545 1543 1542 1542 1541 1541 1541 1541 1543 1540 1538 1539 1539 1539 1538 1539 1540 1540 1539 1539 1539 1537 1535 1533 1534 1533 1531 1533 1531 1531 1530 1528 1529 1529 1528 1528 1529 1530 1530 1530 1531 1531 1531
1543 1542 1541 1541 1541 1540 1539 1539 1539 1539 1536 1537 1538 1535 1534 1535 1535 1536 1537 1537 1536 1535 1533 1533 1532 1531 1530 1529 1529 1529 1528 1526 1525 1525 1525 1525 1525 1525 1525 1526 1525 1525 1525
1541 1541 1540 1540 1540 1540 1540 1538 1537 1537 1536 1535 1534 1533 1532 1531 1531 1533 1534 1534 1533 1533 1532 1531 1530 1529 1526 1526 1526 1526 1525 1523 1522 1520 1521 1521 1521 1520 1520 1520 1520 1521 1521
1540 1540 1539 1539 1539 1539 1539 1538 1537 1536 1535 1535 1536 1535 1535 1534 1532 1531 1531 1531 1531 1529 1530 1528 1527 1526 1525 1523 1523 1523 1521 1520 1519 1516 1517 1517 1517 1517 1516 1516 1516 1517 1518
1539 1539 1538 1539 1540 1540 1538 1536 1537 1538 1537 1536 1535 1534 1533 1533 1532 1531 1529 1529 1529 1528 1527 1526 1524 1523 1522 1521 1521 1520 1518 1517 1515 1514 1514 1514 1513 1513 1512 1512 1513 1513 1514
1539 1538 1539 1540 1541 1540 1539 1537 1536 1535 1535 1535 1534 1533 1532 1532 1532 1531 1530 1529 1527 1526 1525 1524 1522 1521 1520 1519 1517 1516 1514 1515 1514 1513 1513 1512 1511 1510 1509 1509 1509 1509 1509
1538 1537 1538 1538 1538 1539 1539 1536 1537 1538 1535 1532 1531 1531 1531 1530 1528 1529 1529 1526 1524 1524 1523 1522 1520 1518 1518 1516 1515 1515 1515 1513 1512 1511 1509 1510 1509 1507 1507 1506 1506 1507 1506
1536 1535 1536 1538 1537 1538 1536 1536 1535 1535 1535 1532 1530 1529 1528 1527 1525 1524 1526 1525 1523 1520 1520 1520 1519 1518 1516 1516 1515 1513 1513 1511 1510 1508 1508 1508 1507 1506 1505 1505 1505 1504 1503
1534 1533 1534 1535 1536 1535 1533 1533 1533 1531 1532 1531 1529 1526 1526 1527 1524 1522 1522 1523 1521 1520 1518 1517 1516 1516 1515 1514 1513 1512 1511 1510 1510 1508 1507 1507 1505 1504 1504 1504 1504 1503 1502
1531 1531 1531 1532 1533 1532 1532 1531 1529 1529 1530 1530 1527 1525 1523 1524 1520 1520 1518 1520 1520 1519 1518 1516 1515 1513 1513 1512 1511 1510 1509 1507 1506 1505 1505 1505 1504 1503 1501 1502 1501 1501 1501
1530 1530 1530 1530 1530 1531 1530 1528 1527 1527 1528 1528 1525 1523 1522 1521 1517 1517 1516 1518 1518 1517 1516 1515 1512 1512 1510 1509 1508 1508 1508 1506 1505 1504 1502 1503 1503 1502 1500 1499 1499 1500 1500
1527 1529 1529 1528 1529 1529 1527 1526 1525 1525 1525 1525 1523 1521 1519 1518 1516 1514 1513 1515 1516 1515 1514 1511 1512 1509 1509 1507 1506 1505 1506 1505 1504 1501 1501 1502 1502 1502 1501 1498 1498 1497 1497